Snowfall_Accumulation
0.0 0.0 0.0 0.0 0.0 0.0 0.0 0.0 0.0 0.0 0.0 0.0 0.0 0.0 0.0 0.0 0.0 0.0 0.0 0.0 0.0 0.0 0.0 0.0 0.0 0.0 0.0 0.0 0.0 0.0 0.0 0.0 0.0 0.0 0.0 0.0 0.0 0.0 0.0 0.0 0.0 0.0 0.0 0.0 0.0 0.0 0.0
0.0 0.0 0.0 0.0 0.0 0.0 0.0 0.0 0.0 0.0 0.0 0.0 0.0 0.0 0.0 0.0 0.0 0.0 0.0 0.0 0.0 0.0 0.0 0.0 0.0 0.0 0.0 0.0 0.0 0.0 0.0 0.0 0.0 0.0 0.0 0.0 0.0 0.0 0.0 0.0 0.0 0.0 0.0 0.0 0.0 0.0 0.0
0.0 0.0 0.0 0.0 0.0 0.0 0.0 0.0 0.0 0.0 0.0 0.0 0.0 0.0 0.0 0.0 0.0 0.0 0.0 0.0 0.0 0.0 0.0 0.0 0.0 0.0 0.0 0.0 0.0 0.0 0.0 0.0 0.0 0.0 0.0 0.0 0.0 0.0 0.0 0.0 0.0 0.0 0.0 0.0 0.0 0.0 0.0
0.0 0.0 0.0 0.0 0.0 0.0 0.0 0.0 0.0 0.0 0.0 0.0 0.0 0.0 0.0 0.0 0.0 0.0 0.0 0.0 0.0 0.0 0.0 0.0 0.0 0.0 0.0 0.0 0.0 0.0 0.0 0.0 0.0 0.0 0.0 0.0 0.0 0.0 0.0 0.0 0.0 0.0 0.0 0.0 0.0 0.0 0.0
0.0 0.0 0.0 0.0 0.0 0.0 0.0 0.0 0.0 0.0 0.0 0.0 0.0 0.0 0.0 0.0 0.0 0.0 0.0 0.0 0.0 0.0 0.0 0.0 0.0 0.0 0.0 0.0 0.0 0.0 0.0 0.0 0.0 0.0 0.0 0.0 0.0 0.0 0.0 0.0 0.0 0.0 0.0 0.0 0.0 0.0 0.0
0.0 0.0 0.0 0.0 0.0 0.0 0.0 0.0 0.0 0.0 0.0 0.0 0.0 0.0 0.0 0.0 0.0 0.0 0.0 0.0 0.0 0.0 0.0 0.0 0.0 0.0 0.0 0.0 0.0 0.0 0.0 0.0 0.0 0.0 0.0 0.0 0.0 0.0 0.0 0.0 0.0 0.0 0.0 0.0 0.0 0.0 0.0
0.0 0.0 0.0 0.0 0.0 0.0 0.0 0.0 0.0 0.0 0.0 0.0 0.0 0.0 0.0 0.0 0.0 0.0 0.0 0.0 0.0 0.0 0.0 0.0 0.0 0.0 0.0 0.0 0.0 0.0 0.0 0.0 0.0 0.0 0.0 0.0 0.0 0.0 0.0 0.0 0.0 0.0 0.0 0.0 0.0 0.0 0.0
0.0 0.0 0.0 0.0 0.0 0.0 0.0 0.0 0.0 0.0 0.0 0.0 0.0 0.0 0.0 0.0 0.0 0.0 0.0 0.0 0.0 0.0 0.0 0.0 0.0 0.0 0.0 0.0 0.0 0.0 0.0 0.0 0.0 0.0 0.0 0.0 0.0 0.0 0.0 0.0 0.0 0.0 0.0 0.0 0.0 0.0 0.0
0.0 0.0 0.0 0.0 0.0 0.0 0.0 0.0 0.0 0.0 0.0 0.0 0.0 0.0 0.0 0.0 0.0 0.0 0.0 0.0 0.0 0.0 0.0 0.0 0.0 0.0 0.0 0.0 0.0 0.0 0.0 0.0 0.0 0.0 0.0 0.0 0.0 0.0 0.0 0.0 0.0 0.0 0.0 0.0 0.0 0.0 0.0
0.0 0.0 0.0 0.0 0.0 0.0 0.0 0.0 0.0 0.0 0.0 0.0 0.0 0.0 0.0 0.0 0.0 0.0 0.0 0.0 0.0 0.0 0.0 0.0 0.0 0.0 0.0 0.0 0.0 0.0 0.0 0.0 0.0 0.0 0.0 0.0 0.0 0.0 0.0 0.0 0.0 0.0 0.0 0.0 0.0 0.0 0.0
0.0 0.0 0.0 0.0 0.0 0.0 0.0 0.0 0.0 0.0 0.0 0.0 0.0 0.0 0.0 0.0 0.0 0.0 0.0 0.0 0.0 0.0 7.9 0.0 0.0 0.0 0.0 0.0 0.0 0.0 0.0 0.0 0.0 0.0 0.0 0.0 0.0 0.0 0.0 0.0 0.0 0.0 0.0 0.0 0.0 0.0 0.0
0.0 0.0 0.0 0.0 0.0 0.0 0.0 0.0 0.0 0.0 0.0 0.0 0.0 0.0 0.0 0.0 0.0 0.0 0.0 0.0 0.0 7.6 7.3 0.0 0.0 0.0 0.0 0.0 0.0 0.0 0.0 0.0 0.0 0.0 0.0 0.0 0.0 0.0 0.0 0.0 0.0 0.0 0.0 0.0 0.0 0.0 0.0
0.0 0.0 0.0 0.0 0.0 0.0 0.0 0.0 0.0 0.0 0.0 0.0 0.0 0.0 0.0 0.0 0.0 0.0 0.0 0.0 8.6 7.7 0.0 0.0 0.0 0.0 0.0 0.0 0.0 0.0 0.0 0.0 0.4 0.7 0.1 0.0 0.0 0.0 0.0 0.0 0.0 0.0 0.0 0.3 0.9 0.2 0.0
0.0 0.0 0.0 0.0 0.0 0.0 0.0 0.0 0.0 0.0 0.0 0.0 0.0 0.0 0.0 0.0 0.0 0.0 0.0 7.9 14.5 1.1 0.1 0.0 0.0 0.0 0.3 0.0 0.0 0.0 0.0 0.4 0.0 0.1 0.8 0.2 0.0 0.0 0.0 0.0 0.1 0.0 0.0 1.2 3.0 0.5 0.0
0.0 0.0 0.0 0.0 0.0 0.0 0.0 0.0 0.0 0.0 0.0 0.0 0.0 0.0 0.0 0.0 0.0 0.0 0.9 18.5 6.6 0.7 0.7 0.3 0.0 0.1 0.1 0.4 0.0 0.2 0.7 3.2 3.3 2.1 4.7 2.2 0.3 0.0 0.0 0.0 0.2 0.8 0.3 0.3 3.0 0.4 0.3
0.0 0.0 0.0 0.0 0.0 0.0 0.0 0.0 0.0 0.0 0.0 0.0 0.0 0.0 0.0 0.0 0.0 0.0 6.1 9.3 1.3 0.0 0.1 0.1 0.5 0.4 0.1 0.4 0.6 1.6 4.3 3.7 1.7 2.8 3.8 3.0 2.1 0.0 0.0 0.0 0.0 0.9 0.0 1.6 0.8 2.3 1.2
0.0 0.0 0.0 0.0 0.0 0.0 0.0 0.0 0.0 0.0 0.0 0.0 0.0 5.4 0.0 0.0 0.0 4.3 20.5 4.5 0.4 0.0 0.0 0.1 0.1 0.0 0.1 0.4 0.4 2.4 4.5 3.7 0.2 0.3 1.5 3.2 3.1 0.3 1.8 1.8 0.6 1.1 2.6 1.7 2.7 3.3 3.3
0.0 0.0 0.0 0.0 0.0 0.0 0.0 0.0 0.0 0.0 0.0 0.0 0.0 19.4 0.0 0.0 18.6 18.9 11.4 1.7 0.0 0.0 0.0 0.0 0.0 0.0 0.3 0.8 1.5 2.3 4.4 1.1 0.0 0.5 1.4 3.5 4.2 1.2 0.6 0.0 0.0 0.0 1.5 1.0 12.0 8.7 5.8
0.0 0.0 0.0 0.0 0.0 0.0 0.0 0.0 0.0 0.0 0.0 0.0 8.1 9.2 0.0 0.0 18.7 10.3 0.5 0.3 0.1 0.2 0.0 0.1 0.2 0.6 0.4 0.2 1.7 0.6 0.5 0.0 0.1 0.5 2.7 3.3 3.1 2.3 1.0 1.4 0.0 0.5 1.3 0.9 2.6 6.0 5.8
0.0 0.0 0.0 0.0 0.0 0.0 0.0 0.0 0.0 0.0 0.0 0.0 5.0 34.4 8.3 0.0 2.0 5.6 4.8 4.9 2.8 0.9 0.4 0.2 1.0 1.2 0.0 0.1 0.3 0.2 0.1 0.0 0.0 0.1 0.0 0.0 5.0 5.1 5.0 3.1 3.3 3.4 1.1 0.2 4.3 8.6 2.1
0.0 0.0 0.0 0.0 0.0 0.0 0.0 0.0 0.0 0.0 0.0 0.0 17.2 23.2 0.1 19.6 14.1 3.9 4.3 3.7 1.8 1.2 0.0 0.4 1.0 0.1 0.8 1.0 0.5 0.2 0.0 0.1 0.0 0.0 0.0 0.2 3.3 3.3 0.8 0.0 0.1 1.0 1.5 2.7 5.1 2.6 3.7
0.0 0.0 0.0 0.0 0.0 0.0 0.0 0.0 0.0 0.0 0.0 0.0 37.5 10.6 0.5 2.8 1.2 3.6 5.7 5.1 2.2 0.4 2.5 1.9 2.4 1.1 1.6 2.0 0.8 0.3 0.0 0.1 0.0 0.0 0.0 0.5 1.7 1.5 0.6 0.4 0.2 0.4 1.6 3.2 3.9 1.8 0.2
0.0 0.0 0.0 0.0 0.0 0.0 0.0 0.0 0.0 0.0 0.0 14.2 4.3 0.0 6.8 3.5 4.3 7.2 2.3 1.0 1.1 1.0 0.2 0.4 0.5 2.3 1.7 1.7 1.1 1.2 0.6 0.4 0.2 0.2 0.3 4.5 3.1 2.4 2.0 0.2 1.3 7.8 4.3 4.2 10.9 3.7 3.0
0.0 0.0 0.0 0.0 0.0 0.0 0.0 0.0 0.0 0.0 0.0 4.0 0.0 0.0 11.2 10.9 2.8 2.3 0.6 1.4 1.6 1.6 2.0 0.3 0.5 1.8 0.0 0.0 0.0 0.0 0.0 0.0 0.1 0.0 0.0 0.5 4.2 4.1 2.7 1.0 8.4 4.1 0.1 0.0 1.6 4.7 4.3
0.0 0.0 0.0 0.0 0.0 0.0 0.0 0.0 0.0 0.0 0.0 0.0 0.0 0.5 8.4 8.7 2.9 1.6 0.7 0.9 2.3 0.2 1.7 1.5 1.3 0.0 0.0 0.4 5.7 7.1 2.9 2.0 0.3 0.0 0.0 0.0 3.0 5.3 6.5 3.7 1.3 1.8 0.0 0.0 0.2 1.6 0.8
0.0 0.0 0.0 0.0 0.0 0.0 0.0 0.0 0.0 0.0 0.0 0.0 0.0 0.0 6.2 10.8 3.8 0.9 3.3 1.6 2.7 2.6 3.2 1.3 0.0 0.0 0.0 4.3 9.8 7.5 6.1 2.4 0.8 0.2 0.0 0.0 0.7 4.6 5.0 6.4 3.6 1.1 0.0 0.0 0.0 4.7 0.5
0.0 0.0 0.0 0.0 0.0 0.0 0.0 0.0 0.0 0.0 0.0 0.0 0.0 0.0 2.2 16.4 2.1 0.7 1.8 0.9 2.6 4.7 4.3 1.9 2.2 2.0 2.0 6.6 7.8 5.4 3.3 2.1 4.3 3.2 2.6 4.4 3.1 5.0 2.6 4.6 2.1 0.4 0.0 0.0 3.9 5.0 1.1
0.0 0.0 0.0 0.0 0.0 0.0 0.0 0.0 0.0 0.0 0.0 0.0 0.0 0.0 0.5 8.5 1.1 0.0 0.0 1.7 3.1 4.7 7.8 4.8 9.3 6.9 9.2 12.4 7.7 5.0 2.7 1.4 1.5 3.8 2.3 2.9 6.9 7.4 7.9 8.3 4.6 0.2 0.0 0.9 1.0 0.2 1.1
0.0 0.0 0.0 0.0 0.0 0.0 0.0 0.0 0.0 0.0 0.0 0.0 0.0 0.0 0.0 9.4 2.6 0.0 0.0 0.0 0.0 0.0 2.8 5.1 10.7 8.7 8.0 9.8 6.3 3.1 3.9 3.8 1.8 4.4 5.1 5.5 3.2 4.8 6.3 6.9 1.6 0.1 0.4 0.4 0.4 0.5 2.9